FW6155 Weather Reports


Display with metric or nautical units.
time (UTC)temp
F
wind
direction
speed
MPH
gust
MPH
rain 1hr
in
rain 24hr
in
rain mn
in
humidity
%
barometer
mb
20260505113050 55 0.0 0.0 0.00 0.00 0.00 84 1015.1
20260505111543 55 0.0 0.0 0.00 0.00 0.00 85 1015.1
20260505101544 55 0.0 0.0 0.00 0.00 0.00 84 1014.8
20260505100044 55 0.0 0.0 0.00 0.00 0.00 84 1014.7
20260505094544 55 0.0 0.0 0.00 0.00 0.00 85 1014.5
20260505093052 55 0.0 0.0 0.00 0.00 0.00 85 1014.5
20260505091539 55 0.0 0.0 0.00 0.00 0.00 85 1014.4
20260505090047 55 0.0 0.0 0.00 0.00 0.00 85 1014.1
20260505084545 55 0.0 0.0 0.00 0.00 0.00 84 1014.0
20260505083045 56 0.0 0.0 0.00 0.00 0.00 84 1014.1
20260505081553 56 0.0 0.0 0.00 0.00 0.00 83 1014.0
20260505080047 56 0.0 0.0 0.00 0.00 0.00 83 1013.9
20260505074539 56 0.0 0.0 0.00 0.00 0.00 83 1013.8
20260505073049 56 0.0 0.0 0.00 0.00 0.00 83 1013.7
20260505071551 56 0.0 0.0 0.00 0.00 0.00 82 1013.5
20260505070043 57 0.0 0.0 0.00 0.00 0.00 82 1013.5
20260505064543 57 0.0 0.0 0.00 0.00 0.00 81 1013.3
20260505063041 58 0.0 0.0 0.00 0.00 0.00 81 1013.1
20260505061548 58 0.0 0.0 0.00 0.00 0.00 80 1012.9
20260505060049 59 0.0 0.0 0.00 0.00 0.00 79 1012.7
20260505054554 60 0.0 0.0 0.00 0.00 0.00 78 1012.7
20260505053056 61 0.0 0.0 0.00 0.00 0.00 76 1012.4
20260505051550 62 0.0 0.0 0.00 0.00 0.00 74 1012.5
20260505041546 66 0.0 0.0 0.00 0.00 0.00 67 1011.6
20260505040045 67 0.0 0.0 0.00 0.00 0.00 66 1011.5
20260505034546 68 0.0 0.0 0.00 0.00 0.00 64 1011.1
20260505033048 69 0.0 0.0 0.00 0.00 0.00 62 1010.7
20260505031546 70 0.0 0.0 0.00 0.00 0.00 60 1010.5
20260505030100 71 0.0 0.0 0.00 0.00 0.00 60 1010.3
20260505024545 71 0.0 0.0 0.00 0.00 0.00 61 1010.1
20260505023048 72 0.0 0.0 0.00 0.00 0.00 60 1010.2
20260505021547 73 0.0 0.0 0.00 0.00 0.00 57 1010.2
20260505020047 73 0.0 0.0 0.00 0.00 0.00 56 1010.1
20260505014546 74 0.0 0.0 0.00 0.00 0.00 55 1010.1
20260505013043 75 0.0 0.0 0.00 0.00 0.00 54 1010.2
20260505011550 75 0.0 0.0 0.00 0.00 0.00 50 1010.1
20260505010045 76 0.0 0.0 0.00 0.00 0.00 47 1010.1
20260505004549 76 0.0 0.0 0.00 0.00 0.00 47 1010.2
20260505003043 76 0.0 0.0 0.00 0.00 0.00 46 1010.2
20260505001544 76 0.0 0.0 0.00 0.00 0.00 45 1010.4
20260505000042 76 0.0 0.0 0.00 0.00 0.00 43 1010.4
20260504234542 76 0.0 0.0 0.00 0.00 0.00 41 1010.3
20260504233045 76 0.0 0.0 0.00 0.00 0.00 41 1010.4
20260504231544 76 0.0 0.0 0.00 0.00 0.00 42 1010.3
20260504230043 77 0.0 0.0 0.00 0.00 0.00 40 1010.4
20260504224542 76 0.0 0.0 0.00 0.00 0.00 41 1010.9
20260504223047 76 0.0 0.0 0.00 0.00 0.00 40 1010.9
20260504221545 76 0.0 0.0 0.00 0.00 0.00 43 1011.0
20260504220110 76 0.0 0.0 0.00 0.00 0.00 43 1011.3
20260504214551 76 0.0 0.0 0.00 0.00 0.00 41 1011.4
20260504213047 76 0.0 0.0 0.00 0.00 0.00 42 1011.4
20260504211551 76 0.0 0.0 0.00 0.00 0.00 44 1011.4
20260504210045 76 0.0 0.0 0.00 0.00 0.00 46 1011.5
20260504204544 76 0.0 0.0 0.00 0.00 0.00 43 1011.6
20260504203043 76 0.0 0.0 0.00 0.00 0.00 43 1011.6
20260504201547 76 0.0 0.0 0.00 0.00 0.00 46 1011.6
20260504200050 76 0.0 0.0 0.00 0.00 0.00 49 1011.6
20260504194547 75 0.0 0.0 0.00 0.00 0.00 45 1011.6
20260504193043 75 0.0 0.0 0.00 0.00 0.00 47 1011.8
20260504191553 75 0.0 0.0 0.00 0.00 0.00 47 1011.8
20260504190057 74 0.0 0.0 0.00 0.00 0.00 49 1011.9
20260504184559 73 0.0 0.0 0.00 0.00 0.00 52 1011.9
20260504183050 72 0.0 0.0 0.00 0.00 0.00 53 1012.1
20260504181547 72 0.0 0.0 0.00 0.00 0.00 54 1012.1
20260504180052 71 0.0 0.0 0.00 0.00 0.00 57 1012.1
20260504174547 70 0.0 0.0 0.00 0.00 0.00 59 1012.2
20260504173047 69 0.0 0.0 0.00 0.00 0.00 60 1012.1
20260504171544 68 0.0 0.0 0.00 0.00 0.00 61 1012.0